SCP
0 0 0 0 0 0 0 0 0 0 0 0 0 0 0 0 0 0 0 0 0 0 0 0 0 0 0 0 0 0 0 0 0 0 0 0 0 0
0 0 0 0 0 0 0 0 0 0 0 0 0 0 0 0 0 0 0 0 0 0 0 0 0 0 0 0 0 0 0 0 0 0 0 0 0 0
0 0 0 0 0 0 0 0 0 0 0 0 0 0 0 0 0 0 0 0 0 0 0 0 0 0 -0 0 0 -0 -0 0 0 0 0 0 0 0
0 0 0 0 0 0 0 0 0 0 0 0 0 0 0 0 0 0 0 0 0 0 0 0 -0 -0 -0 -0 0 0 0 -0 -0 -0 0 0 0 0
0 0 0 0 0 0 0 0 0 0 0 0 0 0 0 0 0 0 0 0 0 0 0 0 0 0 0 0 0 0 0 -0 -0 -0 -0 -0 0 0
0 0 0 0 0 0 0 0 0 0 0 0 0 0 0 0 0 0 0 0 0 0 0 0 0 0 0 0 0 0 -0 -0 0 0 0 0 0 0
0 0 0 0 0 0 0 0 0 0 0 0 0 0 0 0 0 0 0 0 0 0 0 0 0 0 0 0 0 0 0 0 0 0 0 0 0 0
0 0 0 0 0 0 0 0 0 0 0 0 0 0 0 0 0 0 0 -0 0 0 0 0 0 0 0 0 0 0 0 0 0 0 0 0 0 0
0 0 0 0 0 0 0 0 0 0 0 0 0 0 0 0 0 0 0 0 0 0 0 0 0 0 0 0 0 0 -0 -0 -0 -0 -0 -0 0 -0
0 0 0 0 0 0 0 0 0 0 0 0 0 0 0 0 0 0 0 0 0 0 0 0 0 0 0 0 0 0 -0 0 -0 -0 -0 -0 -0 0
0 0 0 0 0 0 0 0 0 0 0 0 0 0 0 0 0 0 0 0 0 0 0 0 0 0 0 0 0 0 0 0 0 0 -0 0 -0 0
0 0 0 0 0 0 0 0 0 0 0 0 0 0 0 0 0 0 0 0 0 0 0 0 0 0 0 0 0 0 0 0 0 0 0 -0 0 0
0 0 0 0 0 0 0 0 0 0 0 0 0 0 0 0 0 0 0 0 0 0 0 0 0 0 0 -0 0 0 0 0 0 0 0 0 0 0
0 0 0 0 0 0 0 0 0 0 0 0 0 0 0 0 0 0 0 0 0 0 0 0 0 0 0 0 0 0 0 0 0 0 0 0 0 0
0 0 0 0 0 0 0 0 0 0 0 0 0 0 0 0 0 0 0 0 0 0 0 0 0 0 0 0 0 0 0 0 0 0 0 0 0 0
0 0 0 0 0 0 0 0 0 0 0 0 0 0 0 0 0 0 0 0 0 0 0 0 0 -0 -0 0 0 0 0 0 0 0 0 0 0 0
0 0 0 0 0 0 0 0 0 0 0 0 0 0 0 0 0 0 0 0 0 0 0 0 0 -0 -0 0 0 0 0 0 0 0 0 0 0 0
0 0 0 0 0 0 0 0 0 0 0 0 0 0 0 0 0 0 0 0 0 0 0 0 0 -0 -0 0 0 0 0 0 0 0 0 0 0 0
0 0 0 0 0 0 0 0 0 0 0 0 0 0 0 0 0 0 0 0 0 0 0 0 -0 -0 -0 -0 0 0 0 -0 0 0 0 0 0 0
0 0 0 0 0 0 0 0 0 0 0 0 0 0 0 0 0 0 0 0 0 0 0 0 -0 -0 -0 -0 0 -0 -0 -0 0 0 0 0 0 0
-0 0 0 0 0 0 0 0 0 0 0 0 0 0 0 0 0 0 0 0 0 0 0 -0 -0 -0 -0 -0 0 0 -0 -0 -0 0 0 0 0 0
0 0 0 0 0 0 0 0 0 0 0 0 0 0 0 0 0 0 0 0 0 0 0 -0 -0 -0 0 0 -0 -0 -0 -0 -0 -0 -0 -0 0 0
0 0 0 0 0 0 0 0 0 0 0 0 0 0 0 0 0 0 0 0 0 0 0 -0 -0 0 -0 -0 -0 0 -0 -0 -0 -0 0 -0 -0 -0
Wind_Speed_500mb
38 40 42 43 47 48 51 52 50 72 91 58 31 65 57 55 63 60 60 63 66 68 72 75 78 80 82 81 81 84 86 86 87 87 89 88 90 88
40 43 45 47 51 51 52 54 56 57 79 85 85 70 60 63 63 60 60 69 75 79 80 74 74 74 77 78 80 81 81 82 84 85 84 85 84 86
42 46 49 50 53 55 55 56 57 53 71 102 88 86 73 69 65 62 61 75 80 72 73 73 74 75 76 78 81 82 82 84 85 86 85 85 86 84
47 50 52 54 55 55 55 54 53 53 60 80 88 89 83 72 67 63 87 68 70 72 69 69 76 77 74 74 77 79 81 81 82 82 83 84 84 85
50 51 53 55 57 55 51 53 53 50 54 70 87 92 82 67 88 79 80 68 73 75 71 73 71 70 71 72 76 79 82 83 83 83 83 85 87 88
50 52 53 54 54 51 50 49 51 63 66 70 77 65 84 86 78 75 84 77 80 80 82 73 73 73 75 77 77 77 77 77 78 79 80 81 82 84
52 53 52 51 48 47 47 52 57 62 70 76 73 82 82 75 74 79 81 84 86 79 84 62 84 91 89 80 76 75 70 70 72 74 76 77 78 80
55 53 52 51 57 48 53 48 49 61 67 78 78 74 76 70 80 75 78 88 94 66 74 97 86 93 86 82 83 75 75 76 77 77 79 80 82 83
52 53 54 58 58 63 60 58 58 58 66 65 68 64 77 75 79 93 86 79 84 89 91 95 93 91 86 89 85 69 57 66 70 72 74 76 79 82
51 52 59 66 59 58 61 65 75 66 62 55 59 69 69 76 75 70 74 77 83 84 66 84 89 88 96 94 72 56 71 63 65 67 70 71 72 75
53 58 62 53 59 54 62 72 66 63 57 60 58 61 68 58 52 54 66 69 85 85 80 55 67 94 97 90 72 83 77 68 68 64 66 70 75 76
51 56 53 57 53 57 63 64 64 62 68 65 68 61 55 50 49 48 55 65 74 70 67 64 82 70 59 63 90 92 87 79 74 70 62 64 68 75
59 56 62 54 57 60 57 55 52 59 62 64 60 61 58 57 57 54 58 58 66 69 71 62 78 79 61 81 104 98 86 91 83 66 53 57 57 55
55 61 61 60 60 58 53 48 48 50 56 53 59 63 64 66 62 60 61 56 55 64 61 51 66 69 78 91 94 92 87 86 77 60 71 62 57 58
56 56 59 63 61 55 47 44 48 51 52 56 63 65 65 64 64 67 60 59 60 58 53 51 55 64 71 81 87 83 88 94 57 80 69 63 50 45
59 64 60 57 51 47 46 47 52 53 52 58 65 67 66 66 67 67 66 68 72 67 57 56 56 61 68 65 59 69 79 67 92 75 61 49 39 32
56 59 59 55 55 52 51 52 55 56 59 59 65 68 66 68 67 63 62 65 68 73 74 66 60 59 56 51 51 59 74 82 82 66 55 46 36 22
51 55 55 53 54 54 57 62 61 62 62 62 64 66 67 68 67 62 59 63 67 67 72 72 69 71 69 62 35 54 72 83 86 64 48 46 41 24
50 51 53 54 55 55 59 63 68 63 63 64 65 62 63 63 63 61 61 63 63 63 69 62 62 61 61 59 44 48 66 78 84 75 47 48 35 24
47 51 54 54 53 56 61 66 66 62 65 64 62 60 60 63 63 60 60 60 60 61 65 59 57 52 52 46 45 60 47 63 77 77 61 44 39 24
50 52 52 52 53 58 62 65 62 63 65 63 59 62 57 61 61 58 58 53 51 51 59 59 52 42 43 42 52 57 55 42 54 67 78 54 46 43
51 52 51 51 54 58 62 62 63 64 63 60 61 61 60 58 61 56 52 51 49 48 49 50 42 40 43 43 48 56 57 48 40 44 49 58 54 39
51 52 51 51 55 60 62 60 63 63 61 59 60 62 61 59 55 50 45 44 46 44 44 46 37 36 38 41 43 52 53 53 50 46 44 45 45 42
Wind_Direction_500mb
325 323 320 318 315 312 309 309 305 307 308 312 307 309 311 311 315 311 305 303 299 299 300 296 293 291 289 287 285 284 280 279 276 276 274 273 269 264
323 320 319 317 313 310 307 303 300 294 294 304 309 311 311 310 310 308 302 308 306 303 301 297 295 293 290 288 285 284 281 278 275 273 270 268 266 263
321 320 318 315 313 311 309 305 299 295 291 303 308 316 314 312 310 308 306 306 303 301 300 300 297 293 291 289 287 285 282 280 277 275 273 270 267 264
322 319 319 317 316 315 311 306 304 302 295 299 311 315 314 314 310 308 310 308 304 306 303 302 296 293 292 291 288 285 282 280 277 275 272 268 265 261
322 322 321 319 317 317 313 311 309 302 301 297 302 310 311 311 311 310 314 311 311 309 307 303 301 298 296 294 290 286 283 279 277 275 272 269 265 263
322 321 319 318 317 319 316 310 305 304 305 303 298 306 309 310 312 311 312 315 312 313 313 306 305 301 298 296 292 288 284 280 276 273 269 266 264 261
321 320 319 319 319 311 310 308 309 307 308 306 314 309 309 311 311 314 308 312 310 313 310 310 307 310 313 310 305 302 289 285 280 276 271 267 264 261
321 321 320 321 327 316 312 310 306 305 306 308 309 305 306 308 313 310 310 311 311 316 308 307 314 314 316 317 315 302 293 286 280 276 272 268 265 260
322 322 323 328 328 323 327 316 313 309 304 305 303 302 307 311 314 311 310 305 304 308 318 308 323 312 320 320 320 316 302 290 285 279 274 269 265 260
325 324 330 330 325 324 318 316 311 311 310 310 305 307 307 305 304 302 303 306 308 316 314 300 323 316 322 320 323 322 325 297 290 284 278 272 267 261
330 331 328 321 322 321 316 316 313 310 320 318 307 304 310 311 310 310 312 316 314 317 327 307 313 315 321 324 331 329 322 311 308 302 287 274 265 261
328 322 322 323 322 320 317 315 309 320 325 316 313 317 321 324 329 320 319 318 316 314 325 314 318 323 319 316 321 328 331 328 322 314 302 284 272 263
320 321 323 326 321 317 316 309 316 317 310 315 321 328 333 332 332 330 329 323 317 306 329 319 314 321 309 305 321 328 330 332 328 324 315 309 300 275
321 320 326 321 317 319 319 319 315 316 320 325 330 334 334 334 335 333 331 329 322 318 330 329 314 318 316 308 303 323 332 332 329 315 321 321 310 293
319 321 316 321 325 325 329 329 330 332 331 332 331 333 335 333 333 335 336 336 332 336 338 339 332 331 322 303 301 322 328 330 334 326 328 326 318 304
324 316 323 324 328 331 334 339 339 339 334 332 334 335 334 334 336 337 338 342 339 341 346 349 346 340 326 328 322 326 335 318 332 337 333 330 325 314
315 323 329 334 337 339 341 342 342 341 340 338 336 336 337 336 337 339 340 342 340 340 342 349 353 346 344 340 324 341 337 337 343 346 347 350 354 324
323 328 333 336 338 339 340 340 342 342 341 338 338 339 339 339 339 341 342 344 340 342 344 349 350 352 352 356 352 347 356 350 354 358 2 4 7 2
329 333 336 337 339 340 339 339 339 341 341 340 340 341 341 341 341 342 344 344 341 343 345 348 354 352 339 329 346 9 3 4 2 6 9 24 24 25
337 336 337 338 340 338 338 338 338 340 341 342 341 342 342 341 343 343 343 342 342 340 341 353 354 351 344 333 331 360 16 19 16 8 12 39 52 39
338 337 338 340 339 337 337 337 338 340 342 340 342 343 344 340 342 343 342 344 341 342 343 348 349 354 350 354 360 360 11 26 35 27 21 27 27 43
338 337 340 341 338 337 336 338 340 342 342 342 343 345 345 341 342 341 342 342 342 340 339 344 353 359 3 4 3 5 9 15 29 44 50 45 30 26
338 337 340 340 339 337 337 339 340 340 341 341 343 345 344 342 344 341 339 341 342 338 341 346 359 10 13 13 11 14 14 20 26 32 40 53 56 65
Wind_Speed_850mb
38 40 42 43 47 48 51 52 50 72 91 58 31 65 57 55 63 60 60 63 66 68 72 75 78 80 82 81 81 84 86 86 87 87 89 88 90 88
40 43 45 47 51 51 52 54 56 57 79 85 85 70 60 63 63 60 60 69 75 79 80 74 74 74 77 78 80 81 81 82 84 85 84 85 84 86
42 46 49 50 53 55 55 56 57 53 71 102 88 86 73 69 65 62 61 75 80 72 73 73 74 75 76 78 81 82 82 84 85 86 85 85 86 84
47 50 52 54 55 55 55 54 53 53 60 80 88 89 83 72 67 63 87 68 70 72 69 69 76 77 74 74 77 79 81 81 82 82 83 84 84 85
50 51 53 55 57 55 51 53 53 50 54 70 87 92 82 67 88 79 80 68 73 75 71 73 71 70 71 72 76 79 82 83 83 83 83 85 87 88
50 52 53 54 54 51 50 49 51 63 66 70 77 65 84 86 78 75 84 77 80 80 82 73 73 73 75 77 77 77 77 77 78 79 80 81 82 84
52 53 52 51 48 47 47 52 57 62 70 76 73 82 82 75 74 79 81 84 86 79 84 62 84 91 89 80 76 75 70 70 72 74 76 77 78 80
55 53 52 51 57 48 53 48 49 61 67 78 78 74 76 70 80 75 78 88 94 66 74 97 86 93 86 82 83 75 75 76 77 77 79 80 82 83
52 53 54 58 58 63 60 58 58 58 66 65 68 64 77 75 79 93 86 79 84 89 91 95 93 91 86 89 85 69 57 66 70 72 74 76 79 82
51 52 59 66 59 58 61 65 75 66 62 55 59 69 69 76 75 70 74 77 83 84 66 84 89 88 96 94 72 56 71 63 65 67 70 71 72 75
53 58 62 53 59 54 62 72 66 63 57 60 58 61 68 58 52 54 66 69 85 85 80 55 67 94 97 90 72 83 77 68 68 64 66 70 75 76
51 56 53 57 53 57 63 64 64 62 68 65 68 61 55 50 49 48 55 65 74 70 67 64 82 70 59 63 90 92 87 79 74 70 62 64 68 75
59 56 62 54 57 60 57 55 52 59 62 64 60 61 58 57 57 54 58 58 66 69 71 62 78 79 61 81 104 98 86 91 83 66 53 57 57 55
55 61 61 60 60 58 53 48 48 50 56 53 59 63 64 66 62 60 61 56 55 64 61 51 66 69 78 91 94 92 87 86 77 60 71 62 57 58
56 56 59 63 61 55 47 44 48 51 52 56 63 65 65 64 64 67 60 59 60 58 53 51 55 64 71 81 87 83 88 94 57 80 69 63 50 45
59 64 60 57 51 47 46 47 52 53 52 58 65 67 66 66 67 67 66 68 72 67 57 56 56 61 68 65 59 69 79 67 92 75 61 49 39 32
56 59 59 55 55 52 51 52 55 56 59 59 65 68 66 68 67 63 62 65 68 73 74 66 60 59 56 51 51 59 74 82 82 66 55 46 36 22
51 55 55 53 54 54 57 62 61 62 62 62 64 66 67 68 67 62 59 63 67 67 72 72 69 71 69 62 35 54 72 83 86 64 48 46 41 24
50 51 53 54 55 55 59 63 68 63 63 64 65 62 63 63 63 61 61 63 63 63 69 62 62 61 61 59 44 48 66 78 84 75 47 48 35 24
47 51 54 54 53 56 61 66 66 62 65 64 62 60 60 63 63 60 60 60 60 61 65 59 57 52 52 46 45 60 47 63 77 77 61 44 39 24
50 52 52 52 53 58 62 65 62 63 65 63 59 62 57 61 61 58 58 53 51 51 59 59 52 42 43 42 52 57 55 42 54 67 78 54 46 43
51 52 51 51 54 58 62 62 63 64 63 60 61 61 60 58 61 56 52 51 49 48 49 50 42 40 43 43 48 56 57 48 40 44 49 58 54 39
51 52 51 51 55 60 62 60 63 63 61 59 60 62 61 59 55 50 45 44 46 44 44 46 37 36 38 41 43 52 53 53 50 46 44 45 45 42
Wind_Direction_850mb
325 323 320 318 315 312 309 309 305 307 308 312 307 309 311 311 315 311 305 303 299 299 300 296 293 291 289 287 285 284 280 279 276 276 274 273 269 264
323 320 319 317 313 310 307 303 300 294 294 304 309 311 311 310 310 308 302 308 306 303 301 297 295 293 290 288 285 284 281 278 275 273 270 268 266 263
321 320 318 315 313 311 309 305 299 295 291 303 308 316 314 312 310 308 306 306 303 301 300 300 297 293 291 289 287 285 282 280 277 275 273 270 267 264
322 319 319 317 316 315 311 306 304 302 295 299 311 315 314 314 310 308 310 308 304 306 303 302 296 293 292 291 288 285 282 280 277 275 272 268 265 261
322 322 321 319 317 317 313 311 309 302 301 297 302 310 311 311 311 310 314 311 311 309 307 303 301 298 296 294 290 286 283 279 277 275 272 269 265 263
322 321 319 318 317 319 316 310 305 304 305 303 298 306 309 310 312 311 312 315 312 313 313 306 305 301 298 296 292 288 284 280 276 273 269 266 264 261
321 320 319 319 319 311 310 308 309 307 308 306 314 309 309 311 311 314 308 312 310 313 310 310 307 310 313 310 305 302 289 285 280 276 271 267 264 261
321 321 320 321 327 316 312 310 306 305 306 308 309 305 306 308 313 310 310 311 311 316 308 307 314 314 316 317 315 302 293 286 280 276 272 268 265 260
322 322 323 328 328 323 327 316 313 309 304 305 303 302 307 311 314 311 310 305 304 308 318 308 323 312 320 320 320 316 302 290 285 279 274 269 265 260
325 324 330 330 325 324 318 316 311 311 310 310 305 307 307 305 304 302 303 306 308 316 314 300 323 316 322 320 323 322 325 297 290 284 278 272 267 261
330 331 328 321 322 321 316 316 313 310 320 318 307 304 310 311 310 310 312 316 314 317 327 307 313 315 321 324 331 329 322 311 308 302 287 274 265 261
328 322 322 323 322 320 317 315 309 320 325 316 313 317 321 324 329 320 319 318 316 314 325 314 318 323 319 316 321 328 331 328 322 314 302 284 272 263
320 321 323 326 321 317 316 309 316 317 310 315 321 328 333 332 332 330 329 323 317 306 329 319 314 321 309 305 321 328 330 332 328 324 315 309 300 275
321 320 326 321 317 319 319 319 315 316 320 325 330 334 334 334 335 333 331 329 322 318 330 329 314 318 316 308 303 323 332 332 329 315 321 321 310 293
319 321 316 321 325 325 329 329 330 332 331 332 331 333 335 333 333 335 336 336 332 336 338 339 332 331 322 303 301 322 328 330 334 326 328 326 318 304
324 316 323 324 328 331 334 339 339 339 334 332 334 335 334 334 336 337 338 342 339 341 346 349 346 340 326 328 322 326 335 318 332 337 333 330 325 314
315 323 329 334 337 339 341 342 342 341 340 338 336 336 337 336 337 339 340 342 340 340 342 349 353 346 344 340 324 341 337 337 343 346 347 350 354 324
323 328 333 336 338 339 340 340 342 342 341 338 338 339 339 339 339 341 342 344 340 342 344 349 350 352 352 356 352 347 356 350 354 358 2 4 7 2
329 333 336 337 339 340 339 339 339 341 341 340 340 341 341 341 341 342 344 344 341 343 345 348 354 352 339 329 346 9 3 4 2 6 9 24 24 25
337 336 337 338 340 338 338 338 338 340 341 342 341 342 342 341 343 343 343 342 342 340 341 353 354 351 344 333 331 360 16 19 16 8 12 39 52 39
338 337 338 340 339 337 337 337 338 340 342 340 342 343 344 340 342 343 342 344 341 342 343 348 349 354 350 354 360 360 11 26 35 27 21 27 27 43
338 337 340 341 338 337 336 338 340 342 342 342 343 345 345 341 342 341 342 342 342 340 339 344 353 359 3 4 3 5 9 15 29 44 50 45 30 26
338 337 340 340 339 337 337 339 340 340 341 341 343 345 344 342 344 341 339 341 342 338 341 346 359 10 13 13 11 14 14 20 26 32 40 53 56 65